#timestamp,LO_Frequency,Hit,StdDev 
1504162815.9,286047000.6,N,1.0
1504162835.7,286047001.2,N,1.1
1504162855.6,286047000.6,N,1.1
1504162875.4,286046998.1,N,1.1
1504162895.2,286047000.2,N,1.1
1504162915.1,286047000.3,N,1.1
1504162916.0,286047000.3,N,1.1
1504162935.8,286046999.8,N,1.0
1504162955.7,286047000.0,N,1.0
1504162975.5,286046998.5,N,1.0
1504162995.3,286047000.5,N,1.0
1504163015.2,286047000.6,N,1.0
1504163035.0,286047000.3,N,1.0
1504163035.9,286047000.3,N,1.0
1504163055.7,286047000.4,N,1.0
1504163075.6,286047004.0,Y,0.0
1504163095.4,286047004.3,P,2.3
1504163115.3,286047004.4,N,2.2
1504163135.1,286047001.3,N,2.0
1504163155.8,286047001.6,N,1.8
1504163175.7,286047002.5,N,1.7
1504163195.5,286047000.1,N,1.7
1504163215.4,286046999.7,N,1.8
1504163235.2,286047000.4,N,1.7
1504163255.0,286046999.8,N,1.7
1504163255.9,286046999.8,N,1.7
1504163275.8,286047000.4,N,1.6
1504163295.6,286047000.5,N,1.6
1504163315.5,286047000.7,N,1.5
1504163335.3,286046998.1,N,1.7
1504163355.1,286046998.5,N,1.7
1504163375.9,286046996.6,N,1.9
1504163395.7,286046996.5,N,2.1
1504163415.5,286047000.2,N,2.0
1504163435.4,286047000.4,N,2.0
1504163455.2,286047001.1,N,1.9
1504163475.1,286046998.6,N,1.9
1504163476.0,286046998.6,N,1.9
1504163495.8,286046998.3,N,1.9
1504163515.6,286046999.3,N,1.9
1504163535.5,286046999.0,N,1.9
1504163555.3,286046999.6,N,1.8
1504163575.2,286046997.0,N,1.9
1504163595.9,286046996.5,N,1.9
1504163615.7,286046996.7,N,2.0
1504163635.6,286046996.7,N,2.1
1504163655.4,286046997.4,N,1.9
1504163675.2,286046997.3,N,1.7
1504163695.1,286046996.7,N,1.7
1504163696.0,286046996.7,N,1.7
1504163715.8,286046996.5,N,1.6
1504163735.7,286046999.4,N,1.5
1504163755.5,286046999.6,N,1.5
1504163775.3,286046996.8,N,1.5
1504163795.2,286046996.9,N,1.5
1504163815.0,286046997.3,N,1.5
1504163815.9,286046997.3,N,1.5
1504163835.8,286046996.7,N,1.4
1504163855.6,286046999.5,N,1.4
1504163875.4,286046998.8,N,1.4
1504163895.3,286046999.2,N,1.4
1504163915.1,286046998.8,N,1.4
1504163935.9,286046998.3,N,1.3
1504163955.7,286046999.2,N,1.3
1504163975.5,286046997.0,N,1.2
1504163995.4,286046999.1,N,1.1
1504164015.2,286046999.2,N,1.1
1504164035.1,286046999.4,N,1.2
1504164036.0,286046999.4,N,1.2
1504164055.8,286046999.0,N,1.2
1504164075.6,286046998.8,N,1.2
1504164095.5,286047001.1,N,1.3
1504164115.3,286046998.5,N,1.3
1504164135.1,286046999.4,N,1.2
1504164155.9,286046999.0,N,1.2
1504164175.7,286046999.5,N,1.2
1504164195.6,286046998.7,N,1.2
1504164215.4,286046998.5,N,1.2
1504164235.2,286046998.3,N,1.1
1504164255.1,286047001.0,N,1.1
1504164256.0,286047001.0,N,1.1
1504164275.8,286047000.8,N,1.2
1504164295.7,286047000.5,N,1.2
1504164315.5,286047000.4,N,1.2
1504164335.3,286046998.2,N,1.1
1504164355.2,286046998.1,N,1.1
1504164375.0,286047000.0,N,1.1
1504164375.9,286047000.0,N,1.0
1504164395.8,286047000.9,N,1.0
1504164415.6,286047000.9,N,1.0
1504164435.4,286047000.4,N,1.0
1504164455.3,286046998.2,N,1.1
1504164475.1,286047001.0,N,1.1
1504164495.8,286046998.1,N,1.1
1504164515.7,286047001.0,N,1.0
1504164535.5,286046998.1,N,1.1
1504164555.4,286047000.9,N,1.1
1504164575.2,286046999.9,N,1.1
1504164595.0,286047000.5,N,1.1
1504164595.9,286047000.5,N,1.1
1504164615.8,286047001.1,N,1.1
1504164635.6,286047000.8,N,1.1
1504164655.5,286047000.5,N,1.1
1504164675.3,286046999.7,N,1.1
1504164695.1,286047000.0,N,1.1
1504164715.9,286047000.5,N,1.1
1504164735.7,286047000.4,N,1.1
1504164755.5,286047000.1,N,1.0
1504164775.4,286047002.0,N,1.0
1504164795.2,286047002.2,N,1.1
1504164815.1,286047001.4,N,1.1
1504164816.0,286047001.4,N,1.1
1504164835.8,286047002.8,N,1.2
1504164855.7,286047001.6,N,1.2
1504164875.5,286046999.9,N,1.1
1504164895.3,286047000.2,N,1.1
1504164915.2,286047000.9,N,1.1
1504164935.0,286047000.1,N,1.1
1504164935.9,286047000.1,N,1.1
1504164955.8,286046999.7,N,1.1
1504164975.6,286047000.4,N,1.1
1504164995.4,286047000.3,N,1.0
1504165015.3,286047002.3,N,1.0
1504165035.1,286046999.8,N,0.9
1504165055.9,286047000.6,N,0.9
1504165075.7,286047000.1,N,0.8
1504165095.5,286047000.1,N,0.8
1504165115.4,286047000.4,N,0.8
1504165135.2,286047000.5,N,0.8
1504165155.0,286047000.1,N,0.8
1504165155.9,286047000.1,N,0.8
1504165175.8,286046999.7,N,0.8
1504165195.6,286047000.5,N,0.8
1504165215.5,286047000.9,N,0.8
1504165235.3,286046999.9,N,0.8
1504165255.1,286047000.1,N,0.8
1504165275.9,286046999.9,N,0.8
1504165295.7,286047002.1,N,0.9
1504165315.6,286047002.3,N,0.9
1504165335.4,286046999.8,N,0.9
1504165355.2,286047002.8,Y,0.0
1504165375.1,286047002.7,P,1.1
1504165376.0,286047002.7,N,1.0
1504165395.8,286047002.0,N,0.9
1504165415.6,286046999.8,N,1.2
1504165435.5,286047000.6,N,1.1
1504165455.3,286047002.4,N,1.1
1504165475.2,286046999.9,N,1.2
1504165495.9,286047000.0,N,1.2
1504165515.7,286047000.1,N,1.2
1504165535.6,286047001.8,N,1.1
1504165555.4,286047002.0,N,1.1
1504165575.3,286047002.6,N,1.1
1504165595.1,286047002.6,N,1.1
1504165596.0,286047002.6,N,1.1
1504165615.8,286047001.5,N,1.1
1504165635.7,286047001.5,N,1.1
1504165655.5,286047001.8,N,1.0
1504165675.4,286047004.4,Y,0.0
1504165695.2,286047002.1,P,0.3
1504165715.0,286047001.3,P,0.3
1504165715.9,286047001.3,P,0.3
1504165735.8,286047004.2,Y,0.0
1504165755.6,286046998.6,P,1.5
1504165775.5,286047000.8,N,1.3
1504165795.3,286047000.4,N,1.1
1504165815.1,286046999.8,N,1.0
1504165835.9,286047002.3,N,1.2
1504165855.7,286047002.4,N,1.3
1504165875.5,286047002.8,N,1.4
1504165895.4,286047000.2,N,1.3
1504165915.2,286682705.7,Y,0.0
1504165935.1,286046998.5,P,1.2
1504165936.0,286046998.5,N,1.2
1504165955.8,286046998.1,N,1.1
1504165975.6,286047001.1,N,1.3
1504165995.5,286046998.1,N,1.3
1504166015.3,286047000.9,N,1.3
1504166035.2,286046998.5,N,1.3
1504166055.9,286046999.0,N,1.2
1504166075.7,286046999.0,N,1.2
1504166095.6,286046999.4,N,1.1
1504166115.4,286046996.6,Y,0.0
1504166135.3,286046998.6,P,0.3
1504166155.1,286046996.5,P,1.2
1504166175.8,286046996.7,N,1.2
1504166195.7,286046997.2,N,1.1
1504166215.5,286046997.2,N,1.0
1504166235.4,286046997.9,N,0.9
1504166255.2,286046997.3,N,0.9
1504166275.0,286046998.0,N,0.8
1504166275.9,286046998.0,N,0.8
1504166295.8,286046997.7,N,0.8
1504166315.6,286046997.8,N,0.7
1504166335.5,286046997.2,Y,0.0
1504166355.3,286046998.8,P,0.6
1504166375.1,286046996.8,P,0.8
1504166395.9,286046997.3,P,0.7
